Content
SEND FEEDBACK

Daily
Averages
Monthly
Summary
United States of America

LEON, OKLAHOMA


Home > North America > United States > Oklahoma
Elevation: 860 feet     Latitude: 34 02N     Longitude: 097 32W

WEATHER
 
SELECT A DAY
Number of Records: 734,665;   Date Range: 5/11/98 - 9/19/14
 
SHARE

PRINT THIS DATA

[ ← Previous Day ]
WEATHER ALMANAC - FEBRUARY 13, 2013
[ Next Day → ]
[ °C ]   °F
Weather ElementAverageHighLow
Temperature42 °F55.4 °F (2:35 pm)33.8 °F (10:35 pm)
Dewpoint31.8 °F35.6 °F (11:55 am)23 °F (5:35 pm)
Humidity71.9 %93 % (12:35 am)29 % (5:35 pm)
Barometer30.06 in30.13 in (8:55 am)29.99 in (4:55 pm)
Wind Speed3.4 mph10.4 mph (2:35 pm)
Wind Gust17.3 mph (2:35 pm)
Weather ElementAverage
Visibility10 mi
Wind DirectionS (180.6 °)

Weather ElementTotal
Precipitation---
Heating Degree Days20.4 (Base 65)
Averaged from 70 records on February 13, 2013
WEATHER CONDITIONS BREAKOUT
WIND DIRECTION BREAKOUT
WEATHER BY HOUR - FEBRUARY 13, 2013
[ °C ]   °F
Local TimeTemperatureDewpointHumidityBarometerVisibilityWind DirectionWind SpeedGust SpeedPrecipitationEventsConditions
12:35 AM35.6 °F33.8 °F93 %30.06 in10.0 miNNW (330°)4.6 mphOvercast
12:55 AM35.6 °F33.8 °F93 %30.06 in10.0 miNNW (330°)4.6 mphOvercast
1:15 AM35.6 °F33.8 °F93 %30.06 in10.0 miNNW (330°)3.5 mphOvercast
1:35 AM35.6 °F33.8 °F93 %30.06 in10.0 miNNW (330°)4.6 mphOvercast
1:55 AM35.6 °F33.8 °F93 %30.06 in10.0 miNNW (330°)5.8 mphOvercast
2:15 AM35.6 °F33.8 °F93 %30.06 in10.0 miNNW (340°)5.8 mphOvercast
2:35 AM35.6 °F33.8 °F93 %30.07 in10.0 miNNW (330°)3.5 mphOvercast
2:55 AM35.6 °F33.8 °F93 %30.07 in10.0 miNNW (330°)3.5 mphOvercast
3:15 AM35.6 °F33.8 °F93 %30.07 in10.0 miNNW (340°)4.6 mphOvercast
3:35 AM35.6 °F33.8 °F93 %30.07 in10.0 miNNW (330°)5.8 mphOvercast
3:55 AM35.6 °F33.8 °F93 %30.07 in10.0 miNNW (340°)3.5 mphOvercast
4:15 AM37.4 °F33.8 °F87 %30.07 in10.0 miCalmOvercast
4:35 AM35.6 °F33.8 °F93 %30.07 in10.0 miWNW (300°)3.5 mphOvercast
4:55 AM37.4 °F33.8 °F87 %30.07 in10.0 miCalmOvercast
5:15 AM37.4 °F33.8 °F87 %30.07 in10.0 miNW (310°)3.5 mphOvercast
5:35 AM35.6 °F33.8 °F93 %30.08 in10.0 miNW (310°)4.6 mphOvercast
5:55 AM35.6 °F33.8 °F93 %30.08 in10.0 miNW (310°)3.5 mphOvercast
6:15 AM35.6 °F33.8 °F93 %30.09 in10.0 miWNW (300°)5.8 mphOvercast
6:35 AM35.6 °F33.8 °F93 %30.09 in10.0 miWNW (290°)5.8 mphOvercast
6:55 AM35.6 °F33.8 °F93 %30.09 in10.0 miNW (310°)3.5 mphOvercast
7:15 AM35.6 °F32.0 °F87 %30.09 in10.0 miNNW (340°)5.8 mphOvercast
7:35 AM35.6 °F32.0 °F87 %30.10 in10.0 miNNW (330°)4.6 mphOvercast
7:55 AM35.6 °F33.8 °F93 %30.10 in10.0 miCalmOvercast
8:15 AM35.6 °F33.8 °F93 %30.11 in10.0 miWest (280°)4.6 mphOvercast
8:35 AM35.6 °F33.8 °F93 %30.12 in10.0 miCalmOvercast
8:55 AM35.6 °F33.8 °F93 %30.13 in10.0 miNW (310°)3.5 mphOvercast
9:15 AM35.6 °F32.0 °F87 %30.13 in10.0 miCalmOvercast
9:35 AM37.4 °F33.8 °F87 %30.12 in10.0 miWSW (250°)3.5 mphOvercast
9:55 AM37.4 °F33.8 °F87 %30.12 in10.0 miCalmMostly Cloudy
10:15 AM37.4 °F33.8 °F87 %30.12 in10.0 miCalmScattered Clouds
10:55 AM41.0 °F33.8 °F76 %30.12 in10.0 miSouth (190°)3.5 mphScattered Clouds
11:15 AM42.8 °F33.8 °F70 %30.12 in10.0 miCalmClear
11:35 AM42.8 °F33.8 °F70 %30.11 in10.0 miWest (260°)5.8 mphClear
11:55 AM42.8 °F35.6 °F76 %30.11 in10.0 miCalmClear
12:15 PM46.4 °F35.6 °F66 %30.10 in10.0 miWest (260°)3.5 mphClear
12:35 PM48.2 °F35.6 °F62 %30.09 in10.0 miWSW (240°)6.9 mphClear
12:55 PM50.0 °F35.6 °F58 %30.07 in10.0 miWest (270°)4.6 mphClear
1:15 PM51.8 °F35.6 °F54 %30.06 in10.0 miWSW (250°)5.8 mphClear
1:35 PM51.8 °F33.8 °F50 %30.05 in10.0 miNW (310°)5.8 mphClear
1:55 PM53.6 °F33.8 °F47 %30.04 in10.0 miWest (260°)5.8 mphClear
2:15 PM53.6 °F32.0 °F44 %30.03 in10.0 miWest (260°)6.9 mphClear
2:35 PM55.4 °F32.0 °F41 %30.02 in10.0 miWest (280°)10.4 mph17.3 mphClear
2:55 PM55.4 °F32.0 °F41 %30.02 in10.0 miWest (260°)9.2 mphClear
3:15 PM55.4 °F30.2 °F38 %30.01 in10.0 miWest (280°)9.2 mphClear
3:35 PM55.4 °F30.2 °F38 %30.01 in10.0 miWest (280°)6.9 mphClear
3:55 PM55.4 °F26.6 °F33 %30.01 in10.0 miWest (280°)8.1 mphClear
4:15 PM55.4 °F26.6 °F33 %30.00 in10.0 miWest (280°)9.2 mphClear
4:35 PM55.4 °F26.6 °F33 %30.00 in10.0 miWest (280°)6.9 mph10.4 mphClear
4:55 PM55.4 °F26.6 °F33 %29.99 in10.0 miWest (260°)6.9 mphClear
5:15 PM55.4 °F24.8 °F31 %29.99 in10.0 miWest (280°)6.9 mphClear
5:35 PM55.4 °F23.0 °F29 %29.99 in10.0 miWest (280°)5.8 mphClear
5:55 PM53.6 °F24.8 °F33 %30.00 in10.0 miWest (280°)4.6 mphClear
6:15 PM51.8 °F26.6 °F38 %30.00 in10.0 miCalmClear
6:35 PM50.0 °F26.6 °F40 %30.01 in10.0 miCalmClear
6:55 PM46.4 °F26.6 °F46 %30.01 in10.0 miCalmClear
7:15 PM44.6 °F28.4 °F53 %30.01 in10.0 miCalmClear
7:35 PM44.6 °F26.6 °F49 %30.02 in10.0 miCalmClear
7:55 PM44.6 °F28.4 °F53 %30.02 in10.0 miCalmClear
8:15 PM39.2 °F32.0 °F75 %30.02 in10.0 miCalmClear
8:35 PM41.0 °F28.4 °F61 %30.02 in10.0 miCalmClear
8:55 PM37.4 °F32.0 °F81 %30.02 in10.0 miCalmClear
9:15 PM37.4 °F30.2 °F75 %30.02 in10.0 miCalmClear
9:35 PM37.4 °F32.0 °F81 %30.02 in10.0 miCalmClear
9:55 PM37.4 °F30.2 °F75 %30.02 in10.0 miCalmClear
10:15 PM37.4 °F30.2 °F75 %30.02 in10.0 miCalmClear
10:35 PM33.8 °F32.0 °F93 %30.02 in10.0 miCalmClear
10:55 PM35.6 °F32.0 °F87 %30.03 in10.0 miCalmClear
11:15 PM35.6 °F32.0 °F87 %30.03 in10.0 miCalmClear
11:35 PM35.6 °F32.0 °F87 %30.03 in10.0 miCalmClear
11:55 PM35.6 °F32.0 °F87 %30.04 in10.0 miCalmClear
Hourly data recorded from K1F0, located miles away from Leon, Oklahoma







STORIES FROM OUR PARTNERS